• In Romania
  • List of Countries
  • For 7 days
  • Water Temperature
  • Satellite Maps
  • Weather Map
  • Weather Widgets
  • user-avatar
    Login

    Hourly Weather Rassekino

    Today, 15 November, Thursday

    Time Temperature Precipitation Wind Pressure Humidity
    00:00 -5°C° 0 mm 5 mps 758 mmHg 48%
    01:00 -4°C° 0 mm 4 mps 758 mmHg 50%
    02:00 -4°C° 0 mm 4 mps 758 mmHg 52%
    03:00 -4°C° 0 mm 4 mps 758 mmHg 54%
    04:00 -5°C° 0 mm 4 mps 758 mmHg 55%
    05:00 -5°C° 0 mm 3 mps 759 mmHg 56%
    06:00 -5°C° 0 mm 3 mps 759 mmHg 57%
    07:00 -5°C° 0 mm 3 mps 759 mmHg 55%
    08:00 -5°C° 0 mm 3 mps 760 mmHg 54%
    09:00 -5°C° 0 mm 3 mps 760 mmHg 52%
    10:00 -4°C° 0 mm 3 mps 761 mmHg 48%
    11:00 -4°C° 0 mm 3 mps 761 mmHg 43%
    12:00 -2°C° 0 mm 3 mps 761 mmHg 39%
    13:00 -2°C° 0 mm 3 mps 762 mmHg 38%
    14:00 -1°C° 0 mm 3 mps 762 mmHg 37%
    15:00 -1°C° 0 mm 3 mps 762 mmHg 36%
    16:00 -2°C° 0 mm 2 mps 762 mmHg 38%
    17:00 -2°C° 0 mm 2 mps 763 mmHg 39%
    18:00 -3°C° 0 mm 2 mps 763 mmHg 41%
    19:00 -3°C° 0 mm 2 mps 763 mmHg 40%
    20:00 -3°C° 0 mm 2 mps 764 mmHg 40%
    21:00 -3°C° 0 mm 2 mps 764 mmHg 40%
    22:00 -4°C° 0 mm 2 mps 764 mmHg 39%
    23:00 -4°C° 0 mm 2 mps 764 mmHg 38%

    Tomorrow, 16 November, Friday

    Time Temperature Precipitation Wind Pressure Humidity
    00:00 -4°C° 0 mm 2 mps 765 mmHg 38%
    01:00 -4°C° 0 mm 2 mps 765 mmHg 37%
    02:00 -4°C° 0 mm 2 mps 765 mmHg 35%
    03:00 -2°C° 0 mm 1 mps 765 mmHg 34%
    04:00 -4°C° 0 mm 2 mps 765 mmHg 33%
    05:00 -5°C° 0 mm 2 mps 765 mmHg 32%
    06:00 -5°C° 0 mm 2 mps 766 mmHg 32%
    07:00 -5°C° 0 mm 2 mps 766 mmHg 31%
    08:00 -5°C° 0 mm 2 mps 766 mmHg 30%
    09:00 -5°C° 0 mm 2 mps 767 mmHg 29%
    10:00 -4°C° 0 mm 2 mps 767 mmHg 26%
    11:00 -3°C° 0 mm 2 mps 767 mmHg 24%
    12:00 -2°C° 0 mm 2 mps 767 mmHg 21%
    13:00 -2°C° 0 mm 2 mps 767 mmHg 22%
    14:00 +1°C° 0 mm 1 mps 767 mmHg 22%
    15:00 +1°C° 0 mm 1 mps 767 mmHg 22%
    16:00 0°C° 0 mm 1 mps 767 mmHg 23%
    17:00 -1°C° 0 mm 1 mps 767 mmHg 24%
    18:00 -1°C° 0 mm 1 mps 767 mmHg 24%
    19:00 -1°C° 0 mm 1 mps 766 mmHg 24%
    20:00 -2°C° 0 mm 1 mps 766 mmHg 24%
    21:00 -2°C° 0 mm 1 mps 766 mmHg 24%
    22:00 -2°C° 0 mm 1 mps 766 mmHg 24%
    23:00 -2°C° 0 mm 1 mps 766 mmHg 23%

    Day after tomorrow, 17 November, Saturday

    Time Temperature Precipitation Wind Pressure Humidity
    00:00 -2°C° 0 mm 1 mps 766 mmHg 23%
    01:00 -2°C° 0 mm 1 mps 766 mmHg 22%
    02:00 -3°C° 0 mm 0 mps 766 mmHg 22%
    03:00 -3°C° 0 mm 0 mps 766 mmHg 21%
    04:00 -3°C° 0 mm 0 mps 765 mmHg 21%
    05:00 -2°C° 0 mm 1 mps 765 mmHg 21%
    06:00 -3°C° 0 mm 1 mps 765 mmHg 21%
    07:00 -2°C° 0 mm 1 mps 764 mmHg 20%
    08:00 -2°C° 0 mm 1 mps 764 mmHg 20%
    09:00 -2°C° 0 mm 1 mps 764 mmHg 20%
    10:00 -1°C° 0 mm 1 mps 763 mmHg 18%
    11:00 0°C° 0 mm 1 mps 763 mmHg 17%
    12:00 -1°C° 0 mm 2 mps 762 mmHg 16%
    13:00 -1°C° 0 mm 2 mps 761 mmHg 17%
    14:00 -1°C° 0 mm 2 mps 761 mmHg 18%
    15:00 -1°C° 0 mm 2 mps 760 mmHg 18%
    16:00 -1°C° 0 mm 2 mps 759 mmHg 19%
    17:00 -2°C° 0 mm 3 mps 759 mmHg 20%
    18:00 -4°C° 0 mm 3 mps 758 mmHg 21%
    19:00 -4°C° 0 mm 3 mps 757 mmHg 22%
    20:00 -4°C° 0 mm 3 mps 757 mmHg 22%
    21:00 -4°C° 0 mm 3 mps 756 mmHg 22%
    22:00 -4°C° 0 mm 3 mps 755 mmHg 23%
    23:00 -4°C° 0 mm 3 mps 754 mmHg 24%

    18 November, Sunday

    Time Temperature Precipitation Wind Pressure Humidity
    00:00 -4°C° 0 mm 3 mps 754 mmHg 25%
    01:00 -4°C° 0 mm 3 mps 753 mmHg 30%
    02:00 -4°C° 0 mm 3 mps 752 mmHg 34%
    03:00 -4°C° 0 mm 3 mps 752 mmHg 38%
    04:00 -4°C° 0.1 mm 3 mps 751 mmHg 43%
    05:00 -4°C° 0.1 mm 3 mps 750 mmHg 48%
    06:00 -5°C° 0.1 mm 3 mps 750 mmHg 53%
    07:00 -4°C° 0.2 mm 3 mps 749 mmHg 57%
    08:00 -4°C° 0.2 mm 3 mps 749 mmHg 61%
    09:00 -4°C° 0.2 mm 3 mps 749 mmHg 65%
    10:00 -4°C° 0.1 mm 3 mps 749 mmHg 66%
    11:00 -4°C° 0.1 mm 3 mps 749 mmHg 66%
    12:00 -2°C° 0.1 mm 3 mps 749 mmHg 67%
    13:00 -2°C° 0.1 mm 3 mps 749 mmHg 65%
    14:00 -2°C° 0.1 mm 2 mps 749 mmHg 63%
    15:00 -2°C° 0.1 mm 2 mps 749 mmHg 62%
    16:00 -2°C° 0.1 mm 2 mps 749 mmHg 59%
    17:00 -3°C° 0.1 mm 2 mps 749 mmHg 57%
    18:00 -3°C° 0.1 mm 2 mps 749 mmHg 55%
    19:00 -3°C° 0 mm 2 mps 749 mmHg 52%
    20:00 -4°C° 0 mm 2 mps 750 mmHg 50%
    21:00 -4°C° 0 mm 2 mps 750 mmHg 48%
    22:00 -4°C° 0 mm 2 mps 750 mmHg 47%
    23:00 -4°C° 0 mm 2 mps 751 mmHg 45%

    19 November, Monday

    Time Temperature Precipitation Wind Pressure Humidity
    00:00 -5°C° 0 mm 2 mps 751 mmHg 44%
    01:00 -5°C° 0 mm 2 mps 751 mmHg 45%
    02:00 -5°C° 0 mm 2 mps 752 mmHg 46%
    03:00 -5°C° 0 mm 2 mps 752 mmHg 46%
    04:00 -5°C° 0 mm 2 mps 753 mmHg 50%
    05:00 -5°C° 0 mm 2 mps 753 mmHg 53%
    06:00 -5°C° 0 mm 2 mps 753 mmHg 57%
    07:00 -5°C° 0 mm 2 mps 754 mmHg 61%
    08:00 -5°C° 0 mm 2 mps 754 mmHg 65%
    09:00 -5°C° 0 mm 2 mps 755 mmHg 69%
    10:00 -4°C° 0 mm 2 mps 755 mmHg 71%
    11:00 -4°C° 0 mm 2 mps 755 mmHg 73%
    12:00 -3°C° 0 mm 2 mps 756 mmHg 75%
    13:00 -3°C° 0 mm 2 mps 756 mmHg 77%
    14:00 -3°C° 0 mm 2 mps 756 mmHg 79%
    15:00 -4°C° 0 mm 3 mps 756 mmHg 80%
    16:00 -4°C° 0 mm 3 mps 756 mmHg 82%
    17:00 -4°C° 0 mm 3 mps 757 mmHg 83%
    18:00 -4°C° 0 mm 3 mps 757 mmHg 84%
    19:00 -3°C° 0 mm 2 mps 757 mmHg 84%
    20:00 -4°C° 0 mm 2 mps 757 mmHg 84%
    21:00 -4°C° 0 mm 2 mps 757 mmHg 85%
    22:00 -4°C° 0 mm 2 mps 758 mmHg 85%
    23:00 -3°C° 0 mm 2 mps 758 mmHg 85%

    20 November, Tuesday

    Time Temperature Precipitation Wind Pressure Humidity
    00:00 -3°C° 0 mm 2 mps 758 mmHg 86%
    01:00 -3°C° 0 mm 2 mps 758 mmHg 87%
    02:00 -3°C° 0 mm 2 mps 758 mmHg 89%
    03:00 -3°C° 0 mm 2 mps 758 mmHg 90%
    04:00 -3°C° 0 mm 2 mps 758 mmHg 91%
    05:00 -3°C° 0 mm 2 mps 758 mmHg 93%
    06:00 -3°C° 0 mm 2 mps 758 mmHg 94%
    07:00 -3°C° 0 mm 2 mps 758 mmHg 93%
    08:00 -3°C° 0 mm 2 mps 758 mmHg 93%
    09:00 -3°C° 0 mm 2 mps 758 mmHg 92%
    10:00 -2°C° 0 mm 2 mps 758 mmHg 89%
    11:00 -2°C° 0 mm 2 mps 758 mmHg 87%
    12:00 -1°C° 0 mm 2 mps 758 mmHg 84%
    13:00 -1°C° 0 mm 2 mps 758 mmHg 83%
    14:00 -1°C° 0 mm 2 mps 758 mmHg 82%
    15:00 -1°C° 0 mm 2 mps 757 mmHg 81%
    16:00 -2°C° 0 mm 2 mps 757 mmHg 81%
    17:00 -2°C° 0 mm 2 mps 757 mmHg 81%
    18:00 -3°C° 0 mm 2 mps 757 mmHg 81%
    19:00 -3°C° 0 mm 2 mps 757 mmHg 80%
    20:00 -3°C° 0 mm 2 mps 757 mmHg 79%
    21:00 -3°C° 0 mm 2 mps 756 mmHg 78%
    22:00 -3°C° 0 mm 2 mps 756 mmHg 78%
    23:00 -3°C° 0 mm 2 mps 757 mmHg 78%
    Show more